Temp_Advection
nan nan nan nan nan nan nan nan nan nan nan nan nan nan nan nan nan nan nan nan nan nan nan nan nan nan nan nan nan nan nan nan nan nan nan nan nan nan nan nan nan nan nan nan nan nan nan nan nan
nan 0 0 -0 -0 0 -0 -0 0 0 -0 -0 -0 -1 -0 -0 -0 0 0 0 0 0 0 0 -0 -0 -0 -0 -0 -0 -0 -0 -0 -0 -0 -0 -0 -0 -0 -0 -0 -0 -0 -0 -0 -0 -0 -0 nan
nan 0 -0 -0 0 -0 -0 0 0 0 -0 -0 -0 -1 -0 -0 0 -0 -0 -0 -0 -0 0 0 -0 -0 0 0 0 0 0 0 0 -0 -0 -0 -0 -0 -0 -0 -0 -0 -0 -0 -0 -0 -0 -0 nan
nan 0 -0 -0 -1 -0 -0 -0 -0 0 0 -0 -2 -1 0 -0 -0 0 0 0 -0 -0 -0 -0 -0 -0 0 0 0 0 0 0 0 0 0 0 0 0 0 0 -0 -0 -0 -0 -0 -0 -0 -0 nan
nan -0 -0 0 -0 0 -0 -0 -0 -0 0 0 -0 -0 0 0 0 0 0 0 -0 -0 -0 -0 -0 0 0 0 0 0 0 0 0 0 0 0 0 0 0 0 0 0 0 -0 -0 -0 -0 -0 nan
nan 0 -0 0 0 0 0 -0 -0 -0 -0 -0 -1 -0 -0 0 0 -0 0 -0 -0 -0 -0 -0 -0 -0 -0 -0 -0 -0 -0 -0 -0 -0 0 0 -0 0 0 0 0 0 0 0 0 -0 -0 -0 nan
nan 0 -0 0 1 0 -0 0 -0 -0 -0 -0 -1 -0 0 -0 -0 -0 -0 -0 -0 -0 -0 -0 -0 -0 -0 -0 -0 -0 -0 -0 -0 -0 -0 0 -0 -0 -0 0 -0 -0 0 0 0 0 0 -0 nan
nan -0 0 -0 0 0 0 0 0 -0 -0 0 -0 -1 -0 -1 -0 -0 -0 -0 -0 0 -0 -0 -0 -0 -0 -0 -0 -0 -0 -0 -0 -0 -0 -0 0 0 0 -0 -0 -0 -0 -0 -0 -0 -0 0 nan
nan -0 -0 0 0 0 0 0 0 0 -0 0 0 -0 -0 -1 -0 -0 -0 -0 0 0 -0 0 0 -0 -0 -0 -0 -0 -0 -0 -0 -0 -0 -0 -0 0 0 0 0 -0 0 -0 -0 -0 -0 -0 nan
nan 0 -0 -0 0 -0 0 0 -0 -0 -0 0 0 0 0 -0 -0 -0 0 0 0 0 -0 -0 -0 -0 -0 -0 -0 -0 -0 -0 -0 -0 -0 -0 -0 -0 -0 0 0 0 0 0 0 -0 -0 -0 nan
nan -0 0 -0 -0 -0 -0 0 0 -0 -0 -0 -0 -0 0 0 0 0 0 0 0 0 -0 -0 -0 -0 -0 -0 -0 -0 -0 -0 -0 -0 -0 -0 -0 -0 -0 -0 -0 0 0 0 0 0 -0 -0 nan
nan 0 0 -0 0 0 -0 0 -0 -0 -0 -0 -0 0 -0 0 0 0 0 0 0 0 -0 -0 -0 -0 -0 -0 -0 -0 -0 -0 -0 -0 -0 -0 -0 -0 -0 -0 -0 -0 -0 0 -0 -0 -0 -0 nan
nan 0 0 0 0 0 0 -0 0 -0 0 0 0 0 0 0 0 0 0 0 0 -0 -0 -0 -0 -0 -0 -0 -0 -0 -0 -0 -0 -0 -0 -0 -0 -0 -0 -0 -0 -0 -0 -0 -0 -0 -0 -0 nan
nan 0 0 0 -0 0 0 0 0 -0 0 0 0 0 0 0 0 0 -0 -0 -0 -0 -0 0 0 -0 -0 -0 -0 -0 -0 -0 -0 -0 -0 -0 -0 -0 -0 -0 -0 -0 -0 -0 -0 -0 -0 -0 nan
nan -0 -0 -0 -0 0 0 0 -0 -0 0 0 0 0 0 0 0 -0 0 0 0 0 0 0 -0 -0 -0 -0 -0 -0 -0 -0 -0 -0 -0 -0 -0 -0 -0 -0 -0 -0 -0 -0 -0 -0 -0 -0 nan
nan -0 0 0 -0 -0 0 -0 0 0 0 0 0 0 -0 -0 -0 0 0 -0 -0 0 0 0 0 0 0 0 0 0 -0 -0 -0 -0 -0 -0 -0 -0 -0 -0 -0 -0 -0 -0 -0 -0 -0 0 nan
nan 0 0 0 -0 -0 0 -0 -0 0 0 0 -0 -0 0 0 -0 -0 0 0 0 0 0 0 -0 -0 0 0 0 0 0 0 0 -0 -0 -0 -0 -0 -0 -0 -0 -0 -0 -0 -0 -0 -0 -0 nan
nan 0 0 0 0 0 -0 0 -0 -0 0 -0 -0 0 0 -0 -0 0 0 0 0 0 0 0 0 -0 0 0 0 0 -0 0 0 0 -0 -0 -0 -0 -0 -0 -0 -0 -0 -0 -0 -0 -0 -0 nan
nan 0 0 0 -0 0 0 0 -1 -1 -0 -0 -0 0 0 -0 0 1 1 0 0 0 0 0 0 -0 -0 0 0 0 0 0 0 0 0 -0 -0 -0 -0 -0 -0 -0 -0 -0 -0 -0 -0 -1 nan
nan 0 0 0 0 -0 -0 0 0 -0 -0 -0 -0 0 0 -0 -0 0 1 1 0 0 0 0 -0 -0 -0 0 0 0 0 0 0 0 0 0 -0 -0 -0 -0 -0 -0 -0 -0 -0 -0 -0 -1 nan
nan 0 0 0 -0 -0 -0 -0 0 0 -0 -0 -0 -0 0 -0 -0 0 1 0 0 0 0 0 -0 0 -0 -0 0 0 0 0 0 0 0 0 0 -0 -0 -0 -0 -0 -0 -0 -0 -0 -0 -0 nan
nan 0 0 -0 -0 0 -0 -0 -0 -0 -0 0 0 0 -0 -0 -0 0 0 0 0 0 -0 0 0 -0 -0 0 0 0 0 0 0 0 0 0 0 0 -0 -0 -0 -0 -0 -0 -0 -0 -0 -0 nan
nan 0 -0 -0 -0 -0 -0 -0 -0 -0 0 -0 -0 0 -0 -0 -0 -0 0 0 -0 -0 0 0 -0 -0 0 0 0 0 0 0 0 0 0 0 0 -0 0 0 0 -0 -0 -0 -0 -0 -0 -0 nan
nan -0 -1 -0 -0 0 -0 0 -0 -0 0 0 -0 0 -0 -0 0 -0 -0 -0 -0 -0 -0 -0 -0 -0 -0 -0 -0 0 0 0 0 0 0 0 0 0 0 0 0 0 -0 -0 -0 -0 -0 0 nan
nan -0 -0 0 0 -0 -0 0 -1 -0 0 -0 -0 0 -0 -0 -0 -0 -0 -0 -0 -0 -0 -0 -0 -0 0 -0 -0 -0 -0 -0 -0 0 0 0 0 0 0 -0 0 0 -0 -0 -0 -0 -0 -0 nan
nan -0 -0 0 0 0 -0 -1 -0 0 0 0 -0 -0 -0 0 0 -0 -0 -0 -0 -0 -0 -0 -0 -0 0 0 0 -0 -0 -0 -0 -0 0 0 0 1 0 -0 -0 0 0 0 -0 -0 -0 -0 nan
nan -0 -0 -1 -0 0 -0 -1 -0 0 0 0 0 0 -0 -0 -0 -0 -0 -0 -0 -0 -0 -0 -0 -0 0 0 0 0 0 -0 -0 -0 0 0 0 0 0 0 0 0 0 0 0 -0 0 0 nan
nan -0 -0 0 0 0 0 -0 0 0 0 0 0 -0 -0 0 -0 -0 -0 -0 -0 -0 -0 -0 -0 -0 -0 -0 0 0 0 -0 -0 -0 -0 0 0 0 0 0 0 0 0 0 0 0 -0 0 nan
nan 0 -0 -0 -0 0 0 0 -0 0 -0 -0 -0 -0 0 0 -0 -0 -0 -0 -0 -0 -0 -0 -0 -0 -0 -0 -0 0 0 0 -0 -0 -0 0 0 1 0 0 0 0 0 -0 -0 0 0 0 nan
nan nan nan nan nan nan nan nan nan nan nan nan nan nan nan nan nan nan nan nan nan nan nan nan nan nan nan nan nan nan nan nan nan nan nan nan nan nan nan nan nan nan nan nan nan nan nan nan nan
Wind_Speed
9 9 9 6 4 5 3 1 2 4 4 7 12 13 13 10 3 4 15 9 7 5 4 3 2 2 2 3 3 3 3 3 4 5 6 7 8 8 9 9 7 7 7 6 6 6 6 6 7
11 11 8 3 5 3 4 2 4 2 15 13 13 12 11 4 9 16 15 12 9 6 5 2 1 1 2 2 2 3 4 4 5 5 5 6 7 8 8 9 9 9 8 8 8 8 8 8 9
13 13 4 5 4 4 4 3 5 8 8 4 6 15 7 8 16 13 13 12 9 7 5 2 0 1 2 3 3 4 4 5 5 6 6 7 7 8 9 9 9 9 10 10 11 11 10 10 10
12 6 4 4 5 4 7 7 8 7 8 7 14 9 8 7 10 13 14 11 7 6 5 3 2 3 4 5 6 7 7 8 8 9 9 10 10 11 11 11 11 11 12 12 12 12 12 12 12
12 4 4 3 3 1 2 12 4 5 5 7 3 5 7 12 13 15 13 11 7 5 4 2 2 4 6 7 7 8 9 9 10 11 12 12 13 14 14 13 14 14 14 13 14 14 13 14 14
4 4 4 4 3 2 3 11 12 7 10 7 10 9 7 15 17 16 12 8 5 5 3 2 3 5 7 7 8 8 9 10 10 11 11 12 13 14 15 15 15 15 15 15 15 16 16 15 15
5 4 6 7 7 4 4 11 12 10 9 5 11 5 10 19 18 17 14 11 7 5 2 3 5 7 8 8 9 10 10 11 12 13 13 12 13 13 13 13 14 14 14 14 15 16 17 17 17
3 4 5 4 7 5 6 4 9 17 4 11 5 7 7 22 21 19 16 13 9 7 4 4 5 6 8 9 9 11 12 12 12 12 12 12 12 12 13 14 14 15 14 13 13 14 15 16 16
3 4 3 7 8 5 10 5 4 8 13 6 6 8 4 21 20 19 17 13 10 6 4 4 5 7 9 9 10 11 11 11 12 11 10 10 10 10 11 12 14 14 14 14 13 14 14 14 15
3 3 5 1 2 6 8 9 9 6 11 5 8 10 13 18 17 17 14 12 9 6 4 5 6 8 9 10 11 11 10 11 11 12 11 10 10 10 10 11 13 14 14 15 16 16 16 16 17
3 3 4 2 2 14 9 8 3 15 1 10 15 17 18 17 15 15 13 10 7 5 5 5 6 8 9 10 10 10 10 11 11 11 11 10 9 9 10 10 11 12 13 14 15 16 17 18 18
6 7 3 6 4 8 5 10 6 4 3 7 10 12 17 17 17 17 14 12 9 6 6 7 7 9 10 11 12 11 11 11 10 10 10 10 9 9 9 10 11 12 13 14 15 15 16 16 17
4 2 7 6 13 12 9 6 3 6 8 6 13 16 15 15 15 13 11 11 11 8 9 8 8 9 10 12 12 11 10 9 9 9 9 9 10 10 11 11 12 13 13 14 14 15 15 14 14
8 13 7 10 10 9 5 2 1 8 10 9 12 16 15 14 15 15 14 13 12 11 11 9 9 10 11 12 12 11 10 9 9 9 9 9 11 11 12 12 12 12 12 12 12 13 13 13 13
13 6 5 12 8 3 4 2 5 4 14 12 14 13 13 11 14 15 11 12 12 13 12 10 10 10 12 11 11 10 10 9 9 9 10 10 10 10 10 10 11 11 11 11 10 10 11 11 12
4 5 4 4 8 3 3 4 4 9 14 11 11 12 13 13 14 14 15 16 16 15 14 13 12 11 11 10 9 9 9 10 10 10 10 10 10 10 11 12 12 12 12 13 13 12 12 12 12
5 4 4 1 3 3 0 4 1 10 10 9 9 11 12 12 15 16 18 18 17 14 14 13 12 11 11 10 9 10 10 11 11 12 11 10 10 11 12 12 13 13 13 13 13 14 14 14 13
5 6 3 4 1 1 1 6 5 4 7 11 10 10 11 13 16 17 19 17 15 13 13 13 12 11 9 8 8 10 11 12 12 12 11 10 10 11 11 11 12 13 13 14 14 13 13 15 16
7 6 6 1 1 1 4 5 8 17 14 13 13 12 10 10 11 20 21 19 16 13 13 12 13 11 9 8 8 9 11 12 13 12 11 11 11 11 11 12 12 13 13 14 14 15 14 14 15
6 8 3 1 1 1 3 7 4 6 2 2 7 3 3 5 7 13 23 21 15 14 14 15 12 10 8 7 7 8 9 11 12 11 11 11 10 11 11 11 12 12 13 14 16 17 16 15 15
5 7 4 3 2 2 4 5 3 4 7 10 10 7 5 2 4 6 17 17 13 13 15 11 9 9 8 7 8 9 10 11 12 12 12 12 11 12 12 13 13 14 13 14 15 16 17 15 12
4 3 3 4 4 3 3 4 2 1 4 5 6 8 8 5 2 5 11 10 10 11 8 7 9 10 9 9 10 10 11 12 12 13 14 13 12 13 13 13 13 14 14 15 16 17 17 17 16
4 2 4 3 4 3 5 4 5 1 1 1 3 6 6 5 5 1 3 5 7 7 8 10 12 14 13 14 14 14 13 13 14 15 14 14 14 14 14 14 15 15 16 16 16 16 16 16 15
5 5 7 5 3 3 2 4 4 4 4 2 0 4 4 5 5 4 3 6 8 11 13 15 16 17 17 19 19 19 17 15 16 16 16 16 16 16 16 16 16 16 16 17 17 17 16 16 15
5 5 3 4 4 5 4 3 7 3 3 6 7 4 5 6 6 4 5 8 11 13 15 18 20 21 19 20 21 22 22 20 19 18 18 18 19 19 18 19 18 18 17 17 17 17 17 16 15
2 4 5 5 3 4 4 5 4 4 1 8 8 7 5 4 6 7 7 9 11 13 16 17 18 21 19 20 19 20 21 22 22 20 20 20 21 22 22 22 21 20 19 18 18 17 17 17 16
1 2 3 6 3 3 2 6 6 2 3 8 9 5 3 3 2 5 5 9 13 14 17 16 15 15 14 15 16 17 18 19 20 21 22 23 23 23 23 24 25 23 22 21 20 19 18 19 17
2 3 3 3 2 3 5 5 5 7 7 6 5 5 4 1 2 3 5 9 13 17 16 14 12 13 15 14 13 14 15 17 16 18 21 22 23 23 24 24 24 25 25 24 23 21 20 20 19
1 0 3 3 4 4 1 6 6 9 8 8 9 7 3 2 1 2 6 10 15 19 16 14 12 12 11 11 12 11 11 13 15 17 19 21 23 23 23 23 24 25 26 26 26 24 23 22 21
3 4 5 4 4 1 3 6 4 9 14 10 5 5 4 2 1 3 9 15 19 21 16 13 12 11 11 10 10 12 13 14 16 18 20 22 23 24 25 25 26 26 26 27 28 27 25 24 23
Wind_Direction
175 176 172 149 73 64 272 219 128 144 72 67 91 114 108 65 81 161 145 165 173 194 203 166 104 73 50 29 14 1 345 330 319 313 313 315 315 317 323 325 329 328 330 335 335 325 312 305 303
173 169 157 116 93 90 267 296 124 211 139 106 74 83 56 87 108 129 149 159 187 200 184 159 84 45 25 11 359 347 338 329 323 316 312 309 314 314 314 317 313 314 310 309 316 315 311 308 302
172 169 159 108 116 174 192 168 168 123 148 118 102 77 81 106 130 145 159 171 198 187 180 180 229 298 299 301 299 301 305 309 312 312 310 309 309 311 310 309 310 306 300 300 303 307 306 304 305
167 156 88 99 188 227 168 174 155 131 77 85 114 67 84 148 147 176 164 179 191 186 181 203 249 283 292 293 294 293 293 294 293 292 291 291 293 294 293 295 295 291 294 297 299 299 299 300 301
160 136 73 115 206 299 118 159 154 104 88 94 83 118 93 144 165 173 178 182 207 211 204 227 288 306 307 304 301 297 294 292 290 288 286 285 283 283 283 282 280 283 286 289 290 291 293 296 297
131 133 87 159 160 64 116 149 123 96 108 105 96 103 137 155 171 177 191 200 210 213 218 270 312 315 312 314 313 309 309 307 305 301 295 293 290 286 282 280 283 285 287 286 285 286 288 289 291
137 103 177 154 151 133 186 148 134 120 111 77 123 100 150 170 185 186 193 211 232 237 252 299 310 313 316 325 318 316 313 312 305 301 300 297 293 291 288 285 285 286 284 282 282 282 280 279 279
184 97 118 186 170 194 174 105 137 131 100 126 143 165 181 180 183 194 203 212 214 224 247 286 305 318 322 322 324 320 318 312 309 309 309 304 295 287 284 284 285 285 285 284 281 279 278 277 273
170 77 172 184 159 187 158 123 117 122 131 131 144 157 158 173 180 191 197 205 217 229 258 289 310 324 323 324 324 323 320 319 315 312 313 311 305 296 287 282 280 282 283 285 286 286 286 286 280
109 114 200 290 186 165 140 117 131 127 124 94 127 143 151 169 182 194 203 212 220 238 268 301 318 322 326 330 329 324 320 313 311 318 321 318 316 311 305 295 288 288 288 287 287 287 285 283 280
101 152 158 359 324 150 125 115 103 137 214 189 178 162 164 175 186 199 207 221 226 249 282 302 311 321 330 332 327 324 320 316 319 324 323 322 318 312 304 294 287 287 288 289 288 286 285 285 284
98 42 63 349 77 103 93 124 99 193 187 186 191 186 184 192 199 199 209 221 233 258 279 296 314 327 332 333 332 331 330 330 323 319 320 322 320 317 308 301 298 299 298 294 293 292 292 291 290
84 115 60 48 78 84 120 82 122 176 159 158 176 184 195 203 202 205 217 219 235 258 288 298 312 326 333 336 334 335 338 336 326 323 320 322 325 320 318 317 318 317 312 308 303 300 298 298 295
119 98 78 50 47 61 100 64 35 204 188 179 185 192 197 204 201 206 215 233 248 277 287 285 306 327 332 334 332 335 334 335 329 330 324 325 325 325 327 328 327 325 325 324 319 315 312 312 313
117 78 44 25 6 48 84 344 239 234 194 184 192 200 203 205 211 227 245 250 269 275 276 285 306 322 327 329 328 327 323 325 328 329 325 327 331 335 336 336 338 339 340 341 339 335 330 328 324
69 59 96 322 5 346 77 256 309 191 185 195 198 208 215 217 226 232 234 245 265 275 281 288 301 318 319 319 318 314 315 317 324 329 331 335 336 336 336 337 338 337 334 336 339 340 336 334 330
11 139 102 357 51 311 86 237 304 198 205 227 235 235 231 226 227 234 244 258 272 281 288 291 294 306 313 315 316 310 314 317 328 334 333 330 330 333 336 339 339 339 339 339 340 340 337 334 330
160 109 85 151 224 72 287 268 276 217 240 251 259 255 250 246 239 242 246 252 262 272 284 290 292 298 297 306 312 312 315 324 326 323 320 321 326 330 333 338 339 337 335 334 333 337 335 333 334
129 113 116 220 244 92 243 275 294 292 270 264 259 261 263 262 255 239 238 241 252 268 285 291 287 285 297 311 321 321 316 317 318 315 316 322 326 330 335 336 336 334 331 330 331 332 338 337 336
92 114 79 45 181 93 3 302 297 349 19 268 266 268 250 252 258 237 227 230 246 266 282 293 280 283 294 313 322 322 318 311 311 317 315 320 324 328 328 328 329 329 331 334 335 336 337 341 339
35 114 152 140 79 53 350 336 1 23 75 79 80 81 67 12 304 237 218 226 248 276 290 279 268 279 291 302 315 316 315 314 315 318 318 321 325 323 323 326 329 333 334 332 331 333 332 335 339
91 330 95 85 86 187 43 257 297 62 48 53 51 59 51 21 345 206 217 235 272 292 286 276 282 287 292 292 295 303 309 313 315 314 316 318 317 314 317 321 324 327 329 331 332 332 331 331 331
150 75 76 73 86 68 353 71 270 243 22 29 24 36 46 32 35 67 228 265 290 300 301 297 295 295 290 286 285 290 297 304 308 307 305 306 308 310 315 318 320 324 328 330 330 328 325 323 322
136 70 44 51 66 30 328 121 263 196 195 191 226 46 60 46 45 37 1 326 322 317 316 310 304 299 294 289 285 284 287 292 295 301 304 303 301 303 306 308 311 314 319 322 323 323 323 320 316
71 63 13 360 6 219 350 46 243 254 228 185 173 103 81 67 61 40 4 340 330 322 315 307 299 293 295 293 292 290 285 283 287 293 300 303 301 300 299 298 300 303 306 311 314 316 316 314 311
78 129 148 202 194 258 9 236 245 229 131 141 131 123 102 68 60 40 28 10 356 342 330 317 311 303 291 286 293 301 292 284 281 287 295 301 303 299 293 292 292 294 295 300 304 308 310 311 310
173 60 151 106 32 43 248 285 309 156 128 138 140 145 144 113 28 20 17 1 354 341 340 331 327 332 320 299 287 292 297 293 283 284 289 298 304 303 295 290 288 288 287 290 294 300 304 304 305
82 164 66 359 130 260 292 276 231 201 191 182 188 189 194 290 0 27 1 351 351 345 334 327 328 335 333 327 301 290 295 300 293 287 292 301 305 304 300 295 290 286 283 284 286 289 293 296 296
57 39 61 114 143 170 299 264 212 196 182 188 201 196 209 300 49 13 356 342 336 341 331 332 322 325 329 336 339 325 317 311 305 301 305 308 308 306 301 298 292 287 282 279 279 280 281 285 288
209 207 156 129 216 161 146 274 294 188 183 175 194 158 137 68 105 10 343 335 334 334 329 327 333 327 331 328 332 334 327 319 311 309 307 306 305 303 301 297 292 290 286 281 277 276 277 280 282
Height
1529 1529 1531 1533 1544 1550 1550 1537 1531 1534 1537 1537 1533 1532 1539 1547 1552 1561 1558 1561 1562 1563 1563 1563 1562 1562 1561 1560 1560 1559 1558 1558 1557 1556 1555 1554 1553 1552 1552 1551 1550 1549 1549 1548 1547 1546 1545 1545 1544
1528 1529 1532 1532 1551 1561 1552 1534 1535 1533 1534 1535 1536 1537 1540 1553 1553 1555 1559 1560 1562 1562 1563 1562 1562 1561 1561 1560 1559 1559 1558 1557 1556 1555 1555 1554 1553 1552 1551 1550 1549 1548 1547 1546 1546 1545 1544 1544 1543
1527 1529 1531 1536 1553 1555 1548 1534 1535 1535 1535 1534 1538 1541 1546 1553 1555 1557 1559 1560 1562 1562 1562 1562 1562 1561 1560 1560 1559 1558 1557 1556 1555 1554 1553 1552 1552 1551 1550 1549 1548 1546 1545 1545 1544 1543 1543 1542 1541
1527 1530 1533 1541 1544 1535 1533 1533 1533 1534 1534 1534 1538 1545 1551 1554 1556 1556 1558 1560 1561 1561 1561 1561 1561 1561 1560 1559 1558 1557 1556 1555 1554 1553 1552 1551 1550 1549 1548 1547 1546 1545 1544 1543 1542 1542 1541 1540 1539
1527 1527 1540 1542 1535 1531 1529 1530 1532 1533 1536 1537 1538 1549 1552 1555 1556 1556 1558 1559 1561 1561 1561 1561 1561 1560 1559 1558 1557 1555 1554 1553 1552 1551 1550 1548 1547 1546 1545 1544 1543 1542 1542 1541 1540 1540 1539 1538 1537
1525 1526 1545 1546 1536 1531 1530 1530 1531 1534 1538 1539 1541 1547 1554 1555 1556 1557 1558 1559 1560 1560 1560 1560 1559 1559 1558 1557 1555 1554 1553 1551 1550 1548 1547 1546 1544 1543 1542 1541 1541 1540 1539 1538 1538 1537 1536 1535 1535
1522 1529 1538 1540 1538 1534 1532 1530 1530 1533 1538 1541 1542 1549 1553 1555 1557 1557 1558 1559 1559 1559 1558 1559 1558 1557 1556 1556 1554 1552 1551 1549 1548 1546 1545 1544 1542 1541 1539 1538 1538 1537 1536 1535 1535 1534 1532 1532 1531
1522 1525 1534 1534 1537 1535 1529 1531 1531 1532 1539 1541 1542 1546 1550 1550 1554 1556 1558 1559 1559 1558 1558 1558 1558 1557 1556 1554 1553 1551 1549 1548 1546 1544 1543 1541 1539 1538 1537 1535 1534 1533 1533 1532 1531 1530 1528 1528 1527
1522 1531 1537 1532 1532 1528 1529 1530 1533 1533 1536 1540 1541 1543 1545 1547 1551 1554 1555 1556 1558 1558 1557 1557 1557 1556 1554 1553 1551 1549 1547 1545 1543 1542 1541 1539 1537 1536 1534 1533 1532 1531 1530 1529 1529 1527 1527 1525 1525
1521 1532 1527 1526 1524 1525 1528 1528 1532 1534 1536 1540 1540 1541 1543 1547 1549 1552 1554 1555 1556 1557 1557 1557 1556 1555 1553 1552 1550 1548 1546 1544 1542 1541 1539 1538 1536 1534 1533 1531 1530 1529 1528 1527 1526 1525 1524 1522 1521
1521 1528 1525 1526 1524 1524 1526 1530 1533 1534 1538 1537 1538 1539 1543 1546 1548 1551 1552 1554 1555 1555 1556 1555 1555 1553 1552 1551 1549 1546 1545 1543 1541 1539 1538 1536 1534 1533 1531 1529 1528 1527 1526 1524 1523 1522 1520 1519 1518
1524 1526 1525 1526 1524 1524 1527 1530 1534 1536 1537 1537 1538 1540 1542 1544 1546 1549 1551 1552 1553 1555 1555 1554 1553 1552 1551 1549 1547 1545 1543 1541 1539 1538 1536 1534 1532 1531 1529 1527 1526 1525 1523 1522 1520 1518 1517 1515 1514
1524 1526 1526 1529 1527 1527 1529 1533 1535 1536 1537 1538 1538 1540 1542 1544 1546 1549 1550 1551 1552 1553 1553 1553 1552 1551 1549 1548 1546 1543 1542 1540 1538 1536 1534 1532 1531 1529 1527 1525 1524 1523 1521 1519 1517 1516 1514 1513 1512
1524 1527 1529 1530 1530 1531 1532 1535 1535 1536 1537 1537 1538 1540 1542 1544 1546 1547 1548 1549 1550 1552 1551 1551 1550 1549 1547 1546 1544 1542 1540 1539 1537 1535 1533 1531 1530 1528 1526 1524 1522 1520 1518 1516 1514 1513 1512 1510 1509
1525 1530 1531 1533 1534 1534 1534 1537 1535 1535 1536 1537 1538 1540 1542 1544 1546 1546 1548 1548 1549 1549 1549 1549 1549 1547 1546 1544 1542 1541 1539 1538 1536 1535 1533 1531 1529 1527 1525 1523 1521 1519 1517 1515 1513 1512 1510 1509 1507
1529 1532 1540 1537 1536 1537 1535 1541 1532 1533 1535 1538 1539 1541 1542 1543 1545 1546 1547 1547 1548 1548 1548 1547 1547 1546 1544 1542 1541 1539 1538 1536 1535 1534 1532 1530 1527 1526 1523 1522 1520 1518 1516 1514 1512 1511 1509 1507 1504
1536 1543 1540 1540 1537 1539 1538 1536 1532 1534 1535 1536 1538 1539 1540 1542 1543 1543 1544 1545 1546 1546 1546 1546 1545 1544 1543 1541 1539 1537 1536 1535 1534 1532 1530 1528 1526 1524 1522 1520 1518 1516 1515 1513 1510 1508 1506 1504 1502
1538 1542 1540 1540 1539 1539 1539 1538 1533 1534 1535 1535 1536 1536 1537 1538 1539 1541 1542 1543 1544 1544 1544 1544 1544 1542 1541 1539 1538 1536 1535 1534 1533 1531 1529 1527 1525 1523 1521 1520 1518 1516 1514 1511 1509 1507 1504 1502 1499
1528 1534 1540 1540 1539 1540 1540 1540 1536 1532 1533 1533 1533 1533 1534 1535 1536 1538 1539 1541 1542 1543 1543 1543 1542 1541 1540 1538 1536 1535 1534 1532 1531 1529 1527 1525 1524 1522 1520 1519 1517 1515 1512 1509 1506 1504 1503 1501 1498
1529 1537 1541 1540 1539 1540 1541 1541 1536 1531 1531 1531 1531 1531 1532 1533 1533 1533 1535 1538 1540 1542 1541 1540 1540 1539 1539 1537 1535 1533 1532 1530 1528 1527 1525 1524 1522 1520 1519 1517 1515 1513 1511 1509 1506 1503 1501 1499 1497
1541 1540 1539 1539 1540 1540 1543 1542 1536 1534 1533 1533 1532 1533 1533 1533 1532 1531 1533 1537 1539 1539 1539 1538 1538 1538 1536 1535 1533 1532 1530 1529 1527 1525 1524 1522 1521 1519 1517 1516 1514 1512 1510 1507 1504 1502 1499 1498 1496
1538 1539 1537 1539 1551 1558 1547 1565 1539 1536 1536 1535 1534 1534 1533 1533 1533 1533 1535 1537 1538 1537 1536 1536 1535 1535 1534 1532 1531 1530 1528 1527 1525 1523 1522 1520 1519 1517 1516 1514 1512 1510 1508 1506 1503 1501 1499 1496 1495
1540 1539 1540 1542 1550 1555 1552 1566 1544 1538 1536 1535 1534 1533 1535 1535 1534 1534 1535 1536 1536 1536 1535 1534 1533 1532 1531 1530 1529 1527 1526 1525 1523 1521 1520 1518 1517 1516 1514 1512 1510 1508 1506 1504 1502 1500 1498 1495 1493
1538 1542 1547 1553 1560 1579 1559 1565 1545 1541 1535 1535 1534 1535 1536 1536 1534 1534 1535 1536 1535 1534 1533 1532 1530 1529 1528 1527 1526 1524 1523 1521 1520 1519 1517 1516 1514 1512 1511 1509 1507 1505 1503 1502 1500 1498 1496 1494 1491
1541 1549 1582 1574 1588 1573 1566 1574 1546 1532 1531 1532 1534 1535 1536 1535 1535 1535 1535 1535 1534 1532 1530 1528 1526 1524 1524 1522 1521 1520 1519 1518 1517 1516 1514 1512 1510 1509 1507 1505 1504 1502 1500 1498 1496 1495 1493 1491 1489
1543 1549 1576 1565 1577 1572 1572 1568 1536 1532 1531 1531 1534 1534 1535 1535 1535 1535 1534 1534 1532 1530 1527 1523 1521 1518 1518 1517 1516 1516 1514 1513 1513 1512 1510 1508 1506 1505 1503 1502 1500 1499 1497 1495 1493 1491 1489 1487 1485
1545 1556 1551 1572 1591 1588 1573 1548 1535 1532 1532 1532 1532 1533 1534 1535 1535 1534 1533 1531 1528 1526 1522 1519 1517 1515 1513 1512 1511 1510 1510 1508 1507 1507 1505 1504 1502 1500 1499 1497 1496 1495 1493 1491 1489 1487 1485 1483 1481
1544 1548 1559 1571 1569 1562 1568 1550 1544 1534 1533 1532 1532 1532 1533 1534 1533 1532 1530 1528 1526 1522 1520 1518 1515 1512 1510 1508 1506 1505 1505 1504 1503 1502 1501 1499 1497 1495 1493 1492 1490 1489 1487 1485 1483 1482 1480 1478 1476
1550 1551 1551 1555 1561 1565 1560 1551 1528 1527 1528 1530 1530 1531 1532 1531 1531 1529 1527 1525 1523 1520 1517 1515 1513 1510 1507 1505 1503 1502 1501 1500 1498 1497 1496 1494 1492 1490 1488 1485 1483 1481 1480 1479 1477 1475 1474 1473 1471
1542 1543 1547 1558 1551 1564 1567 1550 1520 1520 1524 1527 1528 1529 1529 1529 1528 1526 1525 1523 1520 1517 1515 1513 1511 1508 1506 1503 1501 1499 1498 1496 1494 1493 1491 1489 1486 1484 1481 1479 1476 1475 1473 1472 1470 1470 1469 1468 1467